TimeCST,TemperatureF,Dew PointF,Humidity,Sea Level PressureIn,VisibilityMPH,Wind Direction,Wind SpeedMPH,Gust SpeedMPH,PrecipitationIn,Events,Conditions,WindDirDegrees,DateUTC
12:15 AM,30.2,28.4,93,29.62,10.0,South,15.0,-,N/A,,Overcast,180,2014-01-14 06:15:00
12:35 AM,30.2,28.4,93,29.60,10.0,South,15.0,-,N/A,,Mostly Cloudy,180,2014-01-14 06:35:00
12:55 AM,30.2,28.4,93,29.60,10.0,South,13.8,-,N/A,,Mostly Cloudy,180,2014-01-14 06:55:00
1:15 AM,30.2,28.4,93,29.60,10.0,South,10.4,17.3,N/A,,Partly Cloudy,190,2014-01-14 07:15:00
1:35 AM,30.2,28.4,93,29.58,10.0,South,12.7,-,N/A,,Mostly Cloudy,180,2014-01-14 07:35:00
1:55 AM,32.0,28.4,87,29.57,10.0,South,13.8,-,N/A,,Overcast,190,2014-01-14 07:55:00
2:15 AM,32.0,28.4,87,29.56,10.0,South,15.0,-,N/A,,Overcast,190,2014-01-14 08:15:00
2:35 AM,32.0,28.4,87,29.55,10.0,South,16.1,-,N/A,,Overcast,190,2014-01-14 08:35:00
2:55 AM,32.0,28.4,87,29.53,10.0,South,15.0,21.9,N/A,,Overcast,190,2014-01-14 08:55:00
3:15 AM,32.0,28.4,87,29.52,10.0,SSW,16.1,-,N/A,,Overcast,200,2014-01-14 09:15:00
3:35 AM,32.0,30.2,93,29.51,9.0,SSW,15.0,20.7,N/A,,Overcast,200,2014-01-14 09:35:00
3:55 AM,32.0,30.2,93,29.50,5.0,SSW,17.3,-,N/A,,Overcast,200,2014-01-14 09:55:00
4:15 AM,32.0,32.0,100,29.51,3.0,SW,16.1,-,N/A,Snow,Light Snow,220,2014-01-14 10:15:00
4:35 AM,32.0,32.0,100,29.50,2.0,SW,17.3,-,N/A,Snow,Light Snow,220,2014-01-14 10:35:00
4:55 AM,32.0,32.0,100,29.50,2.0,SW,17.3,-,N/A,Snow,Light Snow,220,2014-01-14 10:55:00
5:15 AM,33.8,33.8,100,29.50,1.0,WSW,17.3,25.3,N/A,Snow,Light Snow,250,2014-01-14 11:15:00
5:35 AM,33.8,33.8,100,29.51,4.0,West,19.6,-,N/A,Snow,Light Snow,260,2014-01-14 11:35:00
5:55 AM,33.8,33.8,100,29.52,10.0,WNW,20.7,27.6,0.04,,Overcast,290,2014-01-14 11:55:00
6:15 AM,33.8,33.8,100,29.52,10.0,WNW,27.6,34.5,N/A,,Overcast,300,2014-01-14 12:15:00
6:35 AM,33.8,33.8,100,29.54,10.0,WNW,25.3,32.2,N/A,,Overcast,300,2014-01-14 12:35:00
6:55 AM,33.8,33.8,100,29.54,10.0,WNW,39.1,46.0,N/A,,Overcast,300,2014-01-14 12:55:00
7:15 AM,33.8,32.0,93,29.56,10.0,WNW,32.2,42.6,N/A,,Overcast,290,2014-01-14 13:15:00
7:35 AM,32.0,28.4,87,29.58,10.0,WNW,33.4,44.9,N/A,,Overcast,300,2014-01-14 13:35:00
7:55 AM,30.2,26.6,86,29.60,10.0,NW,40.3,49.5,0.01,,Overcast,310,2014-01-14 13:55:00
8:15 AM,26.6,23.0,86,29.63,-9999.0,NW,32.2,41.4,N/A,,Overcast,310,2014-01-14 14:15:00
8:35 AM,26.6,23.0,86,29.62,9.0,NW,41.4,48.3,N/A,,Overcast,310,2014-01-14 14:35:00
8:55 AM,26.6,23.0,86,29.64,8.0,WNW,35.7,48.3,N/A,,Overcast,300,2014-01-14 14:55:00
9:15 AM,26.6,23.0,86,29.66,7.0,WNW,33.4,42.6,N/A,,Overcast,300,2014-01-14 15:15:00
9:35 AM,26.6,23.0,86,29.67,7.0,WNW,31.1,42.6,N/A,,Overcast,300,2014-01-14 15:35:00
9:55 AM,26.6,23.0,86,29.69,9.0,WNW,32.2,49.5,N/A,,Overcast,300,2014-01-14 15:55:00
10:15 AM,26.6,23.0,86,29.70,8.0,WNW,32.2,43.7,N/A,,Overcast,290,2014-01-14 16:15:00
10:35 AM,26.6,21.2,80,29.70,10.0,WNW,31.1,42.6,N/A,,Overcast,290,2014-01-14 16:35:00
10:55 AM,24.8,21.2,86,29.71,10.0,WNW,31.1,46.0,N/A,,Overcast,300,2014-01-14 16:55:00
11:15 AM,24.8,21.2,86,29.72,8.0,WNW,32.2,39.1,N/A,,Overcast,300,2014-01-14 17:15:00
11:35 AM,24.8,21.2,86,29.73,7.0,WNW,28.8,38.0,N/A,,Overcast,300,2014-01-14 17:35:00
11:55 AM,24.8,21.2,86,29.72,4.0,WNW,35.7,43.7,N/A,,Mostly Cloudy,300,2014-01-14 17:55:00
12:15 PM,24.8,21.2,86,29.73,1.8,WNW,32.2,40.3,N/A,,Mostly Cloudy,300,2014-01-14 18:15:00
12:35 PM,24.8,21.2,86,29.74,0.8,WNW,31.1,41.4,N/A,Snow,Light Snow,300,2014-01-14 18:35:00
12:55 PM,24.8,21.2,86,29.75,0.5,WNW,33.4,42.6,N/A,Snow,Light Snow,300,2014-01-14 18:55:00
1:15 PM,24.8,21.2,86,29.76,1.0,WNW,32.2,39.1,N/A,Snow,Light Snow,300,2014-01-14 19:15:00
1:35 PM,23.0,21.2,93,29.76,0.5,NW,31.1,39.1,N/A,Snow,Light Snow,310,2014-01-14 19:35:00
1:55 PM,23.0,21.2,93,29.78,1.0,WNW,31.1,36.8,N/A,Snow,Light Snow,300,2014-01-14 19:55:00
2:15 PM,23.0,19.4,86,29.79,0.8,NW,29.9,40.3,N/A,Snow,Light Snow,310,2014-01-14 20:15:00
2:35 PM,23.0,19.4,86,29.81,1.5,NW,35.7,42.6,N/A,Snow,Light Snow,310,2014-01-14 20:35:00
2:55 PM,23.0,21.2,93,29.83,1.2,NW,25.3,33.4,N/A,,Overcast,310,2014-01-14 20:55:00
3:15 PM,23.0,17.6,80,29.84,2.0,NW,26.5,35.7,N/A,Snow,Light Snow,320,2014-01-14 21:15:00
3:35 PM,23.0,17.6,80,29.86,3.0,NW,33.4,41.4,N/A,Snow,Light Snow,320,2014-01-14 21:35:00
3:55 PM,21.2,15.8,80,29.87,10.0,NW,28.8,35.7,N/A,,Partly Cloudy,320,2014-01-14 21:55:00
4:15 PM,21.2,17.6,86,29.89,5.0,NW,27.6,34.5,N/A,,Mostly Cloudy,310,2014-01-14 22:15:00
4:35 PM,21.2,15.8,80,29.90,2.0,NW,25.3,36.8,N/A,Snow,Light Snow,320,2014-01-14 22:35:00
4:55 PM,21.2,17.6,86,29.91,3.0,NW,20.7,28.8,N/A,Snow,Light Snow,310,2014-01-14 22:55:00
5:15 PM,19.4,15.8,86,29.92,1.2,NW,27.6,38.0,N/A,Snow,Light Snow,320,2014-01-14 23:15:00
5:35 PM,19.4,15.8,86,29.92,5.0,NW,29.9,35.7,N/A,,Overcast,310,2014-01-14 23:35:00
5:55 PM,19.4,14.0,80,29.94,10.0,NW,32.2,-,N/A,,Overcast,320,2014-01-14 23:55:00
6:15 PM,19.4,14.0,80,29.94,5.0,NW,28.8,-,N/A,Snow,Light Snow,310,2014-01-15 00:15:00
6:35 PM,19.4,14.0,80,29.96,10.0,NW,25.3,33.4,N/A,,Overcast,310,2014-01-15 00:35:00
6:55 PM,17.6,14.0,86,29.97,7.0,NW,27.6,-,N/A,Snow,Light Snow,320,2014-01-15 00:55:00
7:15 PM,17.6,12.2,79,29.98,10.0,NW,27.6,34.5,N/A,,Overcast,320,2014-01-15 01:15:00
7:35 PM,17.6,12.2,79,29.98,10.0,NW,25.3,34.5,N/A,,Overcast,310,2014-01-15 01:35:00
7:55 PM,17.6,12.2,79,29.99,10.0,NW,29.9,35.7,N/A,,Overcast,320,2014-01-15 01:55:00
8:15 PM,15.8,12.2,86,30.00,10.0,NW,25.3,32.2,N/A,,Overcast,320,2014-01-15 02:15:00
8:35 PM,15.8,10.4,79,30.00,10.0,NW,26.5,32.2,N/A,,Overcast,320,2014-01-15 02:35:00
8:55 PM,15.8,10.4,79,30.01,10.0,NW,24.2,-,N/A,Snow,Light Snow,320,2014-01-15 02:55:00
9:15 PM,15.8,10.4,79,30.02,10.0,NW,21.9,29.9,N/A,,Overcast,320,2014-01-15 03:15:00
9:35 PM,14.0,10.4,86,30.02,10.0,NW,24.2,-,N/A,,Overcast,320,2014-01-15 03:35:00
9:55 PM,14.0,8.6,79,30.02,10.0,NW,20.7,27.6,N/A,,Overcast,320,2014-01-15 03:55:00
10:15 PM,12.2,8.6,85,30.03,10.0,NW,20.7,-,N/A,,Overcast,320,2014-01-15 04:15:00
10:35 PM,12.2,8.6,85,30.04,10.0,NW,19.6,-,N/A,,Overcast,320,2014-01-15 04:35:00
10:55 PM,12.2,8.6,85,30.04,10.0,NW,20.7,-,N/A,Snow,Light Snow,320,2014-01-15 04:55:00
11:15 PM,12.2,6.8,79,30.04,10.0,NW,20.7,-,N/A,,Overcast,320,2014-01-15 05:15:00
11:35 PM,12.2,6.8,79,30.04,10.0,NW,18.4,26.5,N/A,,Overcast,320,2014-01-15 05:35:00
11:55 PM,10.4,6.8,85,30.05,10.0,NW,18.4,-,N/A,Snow,Light Snow,320,2014-01-15 05:55:00